Retour au catalogue

CZ-4 DEB

ActifSSO
NORAD 26241·DEBRIS·🇨🇳 China

Lancé Oct 14, 1999 depuis Taiyuan Satellite Launch Center

Loading…

Prochains Passages (prochaines 24 heures)

TLE

FraisSource: Space-Track

Époque: Sep 14, 2026, 07:53 UTC

1 26241U 99057EF  26257.32862450  .00000161  00000-0  68983-4 0  9993
2 26241  98.8955 280.2118 0109166 129.0972 298.4252 14.34683277384468

Suivez CZ-4 DEB en temps réel avec AllMySat

Download on the App Store